TimeCST,TemperatureF,Dew PointF,Humidity,Sea Level PressureIn,VisibilityMPH,Wind Direction,Wind SpeedMPH,Gust SpeedMPH,PrecipitationIn,Events,Conditions,WindDirDegrees,DateUTC
12:53 AM,44.1,34.0,68,29.61,10.0,South,9.2,-,N/A,,Clear,170,2013-11-16 06:53:00
1:53 AM,43.0,34.0,71,29.60,10.0,SE,12.7,17.3,N/A,,Clear,140,2013-11-16 07:53:00
2:53 AM,42.1,34.0,73,29.58,10.0,SSE,10.4,-,N/A,,Mostly Cloudy,150,2013-11-16 08:53:00
3:53 AM,39.9,34.0,79,29.57,10.0,SSE,8.1,-,N/A,,Clear,150,2013-11-16 09:53:00
4:53 AM,41.0,36.0,82,29.55,10.0,SSE,9.2,-,N/A,,Clear,160,2013-11-16 10:53:00
5:53 AM,42.1,37.0,82,29.52,10.0,SSE,10.4,-,N/A,,Clear,160,2013-11-16 11:53:00
6:53 AM,42.1,37.0,82,29.50,9.0,SSE,11.5,-,N/A,,Clear,150,2013-11-16 12:53:00
7:37 AM,42.8,37.4,81,29.49,7.0,SSE,10.4,-,N/A,,Mostly Cloudy,150,2013-11-16 13:37:00
7:50 AM,42.8,37.4,81,29.49,7.0,SSE,9.2,-,N/A,,Overcast,150,2013-11-16 13:50:00
7:53 AM,43.0,37.9,82,29.50,7.0,SE,9.2,-,N/A,,Overcast,140,2013-11-16 13:53:00
8:53 AM,44.1,39.0,82,29.49,6.0,SSE,10.4,-,N/A,,Haze,150,2013-11-16 14:53:00
9:46 AM,44.6,41.0,87,29.46,3.0,SSE,11.5,-,N/A,,Overcast,150,2013-11-16 15:46:00
9:53 AM,45.0,41.0,86,29.47,3.0,SE,10.4,-,N/A,,Overcast,140,2013-11-16 15:53:00
10:26 AM,46.4,42.8,87,29.46,2.5,SE,10.4,-,N/A,,Overcast,140,2013-11-16 16:26:00
10:53 AM,46.0,43.0,89,29.45,2.5,SE,9.2,-,N/A,,Overcast,140,2013-11-16 16:53:00
11:43 AM,46.4,42.8,87,29.41,1.5,ESE,9.2,-,N/A,,Overcast,120,2013-11-16 17:43:00
11:53 AM,46.0,43.0,89,29.41,1.8,ESE,8.1,-,N/A,,Overcast,120,2013-11-16 17:53:00
12:05 PM,46.4,42.8,87,29.39,2.0,ESE,8.1,-,N/A,,Overcast,120,2013-11-16 18:05:00
12:15 PM,46.4,42.8,87,29.38,1.8,ESE,6.9,-,N/A,,Overcast,110,2013-11-16 18:15:00
12:40 PM,46.4,42.8,87,29.37,1.2,ESE,8.1,-,0.00,Rain,Light Rain,120,2013-11-16 18:40:00
12:53 PM,46.0,43.0,89,29.37,1.0,East,6.9,-,0.01,Rain,Light Rain,100,2013-11-16 18:53:00
1:53 PM,45.0,43.0,93,29.33,1.5,ESE,10.4,-,0.05,Rain,Light Rain,110,2013-11-16 19:53:00
2:10 PM,46.4,42.8,87,29.30,1.5,ESE,8.1,-,0.00,Rain,Light Rain,120,2013-11-16 20:10:00
2:45 PM,46.4,44.6,93,29.28,2.5,ESE,10.4,-,0.01,,Overcast,110,2013-11-16 20:45:00
2:53 PM,46.0,44.1,93,29.29,2.5,ESE,6.9,-,0.01,Rain,Light Rain,120,2013-11-16 20:53:00
3:53 PM,46.9,45.0,93,29.26,2.5,East,6.9,-,0.02,Rain,Light Rain,100,2013-11-16 21:53:00
4:00 PM,46.4,44.6,93,29.25,6.0,ENE,4.6,-,0.01,Rain,Light Rain,70,2013-11-16 22:00:00
4:53 PM,46.9,45.0,93,29.24,8.0,Calm,Calm,-,0.01,,Overcast,0,2013-11-16 22:53:00
5:53 PM,46.9,45.0,93,29.25,5.0,Calm,Calm,-,N/A,,Overcast,0,2013-11-16 23:53:00
6:53 PM,46.9,45.0,93,29.26,3.0,Calm,Calm,-,N/A,,Overcast,0,2013-11-17 00:53:00
7:04 PM,46.4,44.6,93,29.23,2.5,Calm,Calm,-,N/A,,Overcast,0,2013-11-17 01:04:00
7:17 PM,46.4,44.6,93,29.25,1.0,Calm,Calm,-,N/A,,Overcast,0,2013-11-17 01:17:00
7:24 PM,46.4,44.6,93,29.25,0.5,Calm,Calm,-,N/A,Fog,Fog,0,2013-11-17 01:24:00
7:33 PM,46.4,44.6,93,29.24,0.5,Calm,Calm,-,N/A,Fog,Fog,0,2013-11-17 01:33:00
7:44 PM,46.4,44.6,93,29.25,0.8,Calm,Calm,-,N/A,,Overcast,0,2013-11-17 01:44:00
7:49 PM,46.4,44.6,93,29.26,1.8,Calm,Calm,-,N/A,,Overcast,0,2013-11-17 01:49:00
7:53 PM,46.9,46.0,97,29.27,3.0,Calm,Calm,-,N/A,,Overcast,0,2013-11-17 01:53:00
8:08 PM,48.2,46.4,93,29.27,4.0,SSW,5.8,-,N/A,,Overcast,200,2013-11-17 02:08:00
8:25 PM,48.2,46.4,93,29.27,4.0,SSW,6.9,-,N/A,,Overcast,210,2013-11-17 02:25:00
8:53 PM,50.0,46.9,89,29.29,6.0,SW,9.2,-,N/A,,Overcast,230,2013-11-17 02:53:00
9:53 PM,46.9,44.1,90,29.30,6.0,SSW,6.9,-,N/A,,Clear,200,2013-11-17 03:53:00
10:53 PM,45.0,42.1,90,29.31,5.0,South,8.1,-,N/A,,Clear,190,2013-11-17 04:53:00
11:53 PM,44.1,41.0,89,29.32,6.0,South,4.6,-,N/A,,Clear,180,2013-11-17 05:53:00